Regional Weather Roundup
Issued by NWS

Home | Current Version | Previous Version | Graphics & Text | Print | Product List | Glossary On
Versions: 1 2 3 4 5 6 7 8 9 10 11 12 13 14 15 16 17 18 19 20 21 22 23 24 25 26 27 28 29 30 31 32 33 34 35 36 37 38 39 40 41 42 43 44 45 46 47 48 49 50
000
ASUS43 KBIS 302110
RWRND

NORTH DAKOTA REGIONAL WEATHER ROUNDUP
NATIONAL WEATHER SERVICE BISMARCK ND
400 PM CDT SAT APR 30 2016

NOTE: "FAIR" INDICATES FEW OR NO CLOUDS BELOW 12,000 FEET WITH NO
SIGNIFICANT WEATHER AND/OR OBSTRUCTIONS TO VISIBILITY.


NDZ001>003-009>011-017-302200-
NORTHWEST NORTH DAKOTA

CITY           SKY/WX    TMP DP  RH WIND       PRES   REMARKS
WILLISTON      SUNNY     63  29  27 E15       30.25S
MINOT          SUNNY     66  27  23 E13G26    30.23F
MINOT AFB      MOSUNNY   63  29  28 E17       30.23S
$$

NDZ018>021-031>035-040>046-302200-
SOUTHWEST NORTH DAKOTA

CITY           SKY/WX    TMP DP  RH WIND       PRES   REMARKS
BISMARCK       SUNNY     59  29  31 E20G36    30.19S
DICKINSON      PTSUNNY   56  30  37 E15       30.18F
GARRISON         N/A     59  29  31 NE10G23   30.22F
HETTINGER ARPT PTSUNNY   56  31  38 E17       30.18S
$$

NDZ004>008-012>016-024-026-027-054-302200-
NORTHEAST NORTH DAKOTA

CITY           SKY/WX    TMP DP  RH WIND       PRES   REMARKS
GRAND FORKS    MOSUNNY   61  27  27 E18G33    30.20F
GRND FRKS AFB  SUNNY     61  26  25 E22G32    30.20F
DEVILS LAKE    SUNNY     59  29  31 NE14G29   30.23F
$$

NDZ022-023-025-028>030-036>039-047>053-302200-
SOUTHEAST NORTH DAKOTA

CITY           SKY/WX    TMP DP  RH WIND       PRES   REMARKS
FARGO          CLOUDY    64  24  21 NE18      30.13F
JAMESTOWN      CLOUDY    61  28  28 NE22G30   30.15F
$$




USA.gov is the U.S. government's official web portal to all federal, state and local government web resources and services.